Wind_Speed
32 32 32 32 32 32 33 34 35 35 35 35 35 36 36 37 37 37 37 38 38 38 39 40 40 41 41 42 43 43 44 45 46 47 47 48 49 49 50 51 52 53 54 54
32 32 32 33 33 33 34 34 35 35 35 34 35 36 37 38 38 38 39 39 40 40 40 41 41 41 42 42 43 43 44 45 47 48 48 49 49 50 50 51 51 52 52 53
32 32 33 34 32 32 33 33 34 35 34 35 36 36 37 38 38 39 39 40 40 41 41 42 42 42 42 42 43 44 45 45 46 47 48 49 50 50 51 51 51 51 51 51
34 33 34 33 32 32 33 33 34 35 35 36 37 37 38 38 38 39 39 40 40 41 42 42 42 42 43 43 44 44 45 45 46 46 47 48 49 50 50 50 51 51 51 51
35 35 35 33 32 32 33 33 34 35 35 36 37 37 38 39 39 40 40 40 41 41 42 42 43 43 43 44 44 45 45 45 45 46 47 48 48 49 50 51 51 51 51 51
34 36 36 34 33 33 33 34 33 34 35 36 37 37 38 38 39 40 40 41 42 42 42 42 43 43 43 44 45 45 45 45 46 47 47 48 48 49 50 50 50 50 50 50
34 35 35 35 34 34 35 35 35 35 36 36 37 38 38 39 39 40 41 42 42 43 43 43 43 44 44 45 45 45 46 46 47 48 49 49 49 49 49 49 49 50 49 49
33 34 34 34 34 34 35 36 36 36 37 37 37 38 39 39 39 39 40 41 42 42 43 43 44 44 44 45 45 46 47 48 48 49 49 49 49 49 49 49 49 49 49 49
34 34 34 34 34 35 35 36 36 37 37 38 38 39 39 39 40 40 41 42 42 43 43 44 44 44 45 45 46 47 47 48 48 48 48 48 49 48 48 48 48 48 48 48
33 33 34 34 35 35 35 36 37 37 38 38 39 40 41 41 41 41 42 43 44 44 44 44 44 45 45 45 46 47 47 47 47 47 47 48 48 48 48 48 48 47 47 46
33 33 34 35 36 36 36 37 37 38 38 39 40 41 42 42 42 43 44 44 45 45 45 45 45 45 45 45 46 46 46 46 47 47 47 47 47 47 47 47 47 46 46 45
32 32 33 34 34 34 35 36 37 38 40 40 41 41 42 43 43 43 44 45 45 45 45 45 45 44 45 45 45 45 45 46 46 46 46 46 46 46 46 46 45 45 45 45
32 33 34 34 34 34 35 36 37 38 40 40 41 41 42 42 43 43 44 44 44 44 44 44 44 44 43 43 44 44 44 45 46 46 46 46 46 45 45 44 44 44 44 44
32 33 34 34 35 36 36 37 38 38 39 40 40 41 42 42 42 42 43 43 43 43 42 42 42 42 41 42 42 43 44 45 45 45 45 45 45 44 43 43 42 42 42 42
32 33 34 35 35 36 36 37 37 38 38 39 39 40 41 41 42 42 42 42 42 41 41 40 40 40 40 41 42 43 43 44 44 43 43 43 43 43 43 42 42 41 40 39
32 33 34 34 35 35 36 37 37 37 38 38 39 40 40 41 41 41 41 40 40 39 39 39 39 39 39 40 41 41 42 42 42 42 42 42 42 42 42 42 41 40 38 37
33 33 34 34 35 35 36 36 37 37 38 39 39 40 40 40 39 39 39 39 39 38 38 38 38 38 38 39 40 40 40 40 41 41 40 40 40 40 40 39 38 36 35 34
32 33 34 34 35 35 36 37 37 38 38 39 39 39 38 38 38 37 37 37 37 37 37 37 38 38 38 38 39 39 39 39 39 40 39 39 39 38 37 36 35 34 33 32
31 33 33 34 34 35 36 37 37 38 38 38 38 37 36 36 36 36 36 36 36 36 36 36 37 37 37 38 38 38 38 38 38 38 38 37 37 36 35 34 33 32 31 30
33 33 33 34 35 36 36 37 37 37 37 37 36 36 36 36 36 35 35 35 35 35 35 36 37 37 37 37 37 37 37 36 36 36 36 35 34 33 32 31 30 29 29 28
33 33 34 34 35 36 36 37 37 36 36 36 35 35 35 35 35 34 34 34 35 35 36 36 37 37 37 36 36 35 35 35 35 34 33 33 32 31 30 29 28 27 27 26
33 33 34 35 35 36 36 36 36 35 35 34 34 35 35 34 34 34 34 34 35 35 36 36 36 36 36 35 35 34 34 33 33 32 32 31 30 29 28 27 26 25 24 24
33 34 34 34 35 35 35 34 34 34 33 33 33 34 34 34 34 34 34 35 35 36 36 36 35 35 35 34 33 33 32 31 31 31 30 30 29 28 26 25 24 23 23 22
33 33 33 34 34 34 33 33 33 33 33 33 33 33 33 33 34 35 35 35 35 35 35 35 34 34 33 33 32 31 30 30 30 30 29 29 28 27 26 25 24 23 22 22
32 33 33 33 33 33 32 32 32 32 32 32 33 33 33 33 34 34 35 35 34 34 34 33 33 32 31 30 29 29 29 29 29 29 28 27 27 26 26 25 24 23 22 21
32 32 32 32 32 31 31 31 31 31 32 32 33 33 33 33 33 33 33 33 33 33 32 31 30 30 29 28 28 28 28 28 28 28 27 26 26 25 24 24 22 21 21 20
31 31 31 31 31 31 31 31 31 32 32 32 32 32 33 33 33 32 32 32 31 31 30 29 28 28 27 27 27 27 27 27 26 26 26 25 24 23 22 21 21 20 19 18
Wind_Direction
276 277 278 278 278 278 278 280 281 283 284 286 287 287 286 286 286 286 285 286 287 288 288 288 288 288 288 287 287 287 287 287 286 286 286 286 286 285 284 283 282 282 282 281
277 277 279 278 279 280 280 281 283 284 284 286 286 286 287 286 286 285 285 286 286 288 288 289 289 289 289 289 289 289 289 288 288 287 287 287 287 287 286 285 285 284 283 283
279 279 279 280 283 282 282 282 284 285 286 287 286 286 287 286 286 286 286 286 287 288 289 289 289 289 289 289 289 289 290 290 289 289 288 288 288 288 287 286 286 285 284 283
281 281 280 284 284 285 285 284 284 285 286 287 287 287 287 287 287 287 287 287 288 288 289 290 290 289 290 290 291 291 291 291 291 291 291 290 289 289 288 287 286 286 285 284
282 282 283 283 286 288 288 286 286 287 287 287 287 287 287 287 288 288 288 288 288 289 289 290 290 290 290 291 292 292 292 292 292 292 292 291 291 290 289 288 287 286 286 285
281 283 285 287 288 288 288 288 288 289 289 288 288 288 288 289 289 289 290 290 290 290 290 291 291 291 291 292 292 293 293 293 293 293 292 292 292 292 291 290 288 287 287 286
281 283 286 289 290 290 290 290 290 290 290 290 289 289 290 291 291 290 291 291 291 291 292 292 292 292 292 292 292 293 293 293 294 294 293 293 293 292 292 291 290 288 287 286
280 282 286 289 289 289 289 290 290 290 290 291 291 291 291 292 292 292 292 293 293 292 292 293 293 293 293 293 293 293 293 294 294 294 294 294 293 293 293 293 292 290 288 286
280 282 285 286 286 287 288 289 290 290 290 291 291 291 292 292 292 293 293 294 294 293 293 293 294 294 294 294 294 294 295 295 295 295 295 295 294 294 294 294 293 291 289 287
281 282 284 285 286 286 286 288 289 289 291 292 291 291 291 291 291 292 293 294 294 294 294 294 294 294 294 294 295 295 295 295 296 296 295 295 295 295 295 295 294 292 290 289
282 283 284 285 286 287 287 287 288 289 290 291 291 291 291 291 291 292 293 294 294 294 295 295 295 295 294 295 295 296 296 296 296 296 295 295 296 296 296 296 295 293 291 290
284 285 287 287 287 288 288 290 290 291 291 291 291 292 292 292 292 293 294 295 295 295 296 296 296 296 296 296 296 296 297 297 297 297 297 296 296 297 297 297 296 294 292 291
286 287 288 289 289 290 290 291 292 292 292 293 293 293 294 294 294 295 295 296 296 297 297 297 297 297 297 297 297 297 298 299 299 298 298 297 297 297 297 297 297 296 294 292
287 288 289 289 290 290 291 292 293 293 294 295 295 296 296 295 296 296 297 298 298 298 299 298 298 298 298 298 299 300 300 300 301 300 299 299 299 299 298 298 297 296 295 293
288 289 289 290 290 292 293 294 294 295 295 296 297 297 297 297 297 298 299 299 300 300 300 300 299 299 299 300 301 302 302 302 302 301 300 300 300 300 300 300 299 297 296 293
287 288 289 290 291 292 294 295 296 296 297 297 298 298 299 299 299 299 299 300 301 301 301 301 301 301 301 302 303 304 304 304 304 304 303 302 301 301 301 301 300 299 297 294
287 288 290 291 293 294 295 296 297 298 298 298 299 299 299 300 300 300 301 301 301 301 302 302 302 302 303 304 305 306 306 306 306 307 305 305 305 304 303 303 302 300 298 296
290 291 292 293 294 295 296 297 298 299 299 299 300 300 300 300 300 301 302 302 302 302 303 303 303 304 304 305 307 307 307 307 308 308 308 307 306 307 306 305 303 301 299 297
291 292 293 294 295 296 297 298 299 299 299 299 300 300 300 301 301 302 303 303 303 303 303 303 304 304 305 306 307 308 308 309 309 310 309 309 308 308 307 306 305 303 301 299
293 294 295 296 297 298 299 300 300 300 300 300 300 300 301 301 301 302 303 303 304 304 304 304 304 305 306 307 307 308 309 309 310 311 311 311 310 310 309 308 307 305 304 302
294 295 296 297 298 299 300 301 301 301 301 301 301 301 302 302 302 303 304 304 304 304 304 305 305 306 307 307 308 309 309 310 311 313 314 314 314 313 312 312 310 308 306 304
296 297 298 299 300 301 302 302 302 301 301 301 301 302 302 302 303 304 305 305 305 305 305 306 306 307 308 308 308 308 309 310 311 313 314 315 315 315 314 313 312 311 309 307
298 298 299 300 302 302 303 303 302 302 302 302 303 303 303 303 304 305 305 305 305 305 306 306 306 306 307 308 308 308 309 309 311 313 314 315 315 316 316 315 313 311 310 309
299 300 301 302 302 303 303 303 303 303 304 304 304 304 304 304 305 305 306 306 306 306 306 306 307 307 307 307 308 308 309 310 311 312 313 314 315 315 315 315 314 311 309 308
301 301 302 302 302 303 303 304 304 304 305 305 305 305 305 305 306 307 307 307 307 307 307 308 308 308 308 308 308 308 309 310 312 313 314 314 314 314 315 315 314 312 310 309
301 302 303 304 304 305 305 305 305 306 306 306 306 306 306 307 307 308 308 308 308 308 308 309 309 309 309 309 309 310 310 311 312 313 314 314 314 314 315 315 316 315 313 311
302 303 304 305 305 306 306 307 307 307 307 307 307 307 307 307 308 308 309 309 309 309 310 310 310 310 310 311 311 312 312 312 312 314 314 314 315 315 315 316 317 317 317 315
Height
5618 5617 5616 5615 5615 5614 5613 5612 5611 5611 5609 5608 5606 5603 5601 5599 5597 5595 5593 5591 5589 5586 5584 5581 5579 5576 5573 5570 5567 5564 5561 5558 5554 5551 5548 5544 5541 5537 5534 5530 5527 5524 5521 5518
5611 5610 5608 5607 5607 5606 5604 5603 5602 5601 5600 5599 5596 5594 5591 5589 5587 5585 5583 5580 5578 5576 5573 5570 5567 5564 5561 5558 5555 5552 5549 5545 5542 5538 5535 5531 5527 5523 5520 5516 5512 5509 5506 5503
5602 5601 5599 5599 5600 5598 5596 5595 5593 5591 5592 5589 5586 5584 5581 5579 5577 5575 5572 5570 5567 5565 5562 5559 5556 5553 5550 5547 5543 5540 5536 5533 5529 5525 5521 5517 5513 5509 5505 5502 5498 5494 5491 5488
5592 5592 5590 5594 5591 5589 5587 5586 5584 5582 5581 5579 5576 5574 5571 5569 5566 5564 5562 5559 5556 5554 5551 5548 5545 5542 5538 5535 5531 5528 5524 5520 5516 5512 5508 5504 5499 5495 5491 5487 5484 5480 5476 5473
5583 5581 5581 5583 5582 5580 5577 5576 5574 5572 5570 5568 5566 5564 5561 5558 5556 5554 5551 5548 5545 5542 5539 5536 5533 5530 5526 5523 5519 5515 5511 5507 5503 5498 5494 5490 5486 5481 5477 5473 5469 5465 5462 5458
5574 5572 5572 5575 5573 5570 5569 5567 5565 5562 5560 5558 5556 5554 5553 5549 5546 5543 5540 5537 5534 5531 5528 5525 5521 5518 5514 5510 5506 5502 5498 5494 5490 5485 5481 5476 5472 5467 5462 5458 5454 5450 5447 5443
5566 5563 5563 5565 5563 5561 5560 5559 5555 5552 5550 5548 5545 5543 5541 5538 5535 5532 5529 5526 5523 5520 5517 5513 5509 5506 5502 5498 5494 5489 5485 5481 5476 5471 5467 5462 5458 5453 5448 5444 5440 5436 5433 5430
5557 5555 5558 5555 5553 5552 5550 5547 5545 5542 5540 5537 5535 5532 5530 5527 5524 5521 5518 5515 5511 5508 5505 5501 5497 5493 5489 5485 5481 5476 5472 5467 5463 5458 5453 5448 5443 5439 5434 5429 5425 5421 5418 5415
5549 5550 5548 5545 5543 5541 5539 5537 5535 5532 5530 5527 5525 5522 5519 5516 5513 5510 5507 5503 5500 5496 5492 5489 5485 5481 5477 5472 5468 5463 5458 5453 5449 5444 5439 5434 5429 5425 5420 5415 5411 5407 5403 5400
5540 5539 5538 5536 5534 5532 5530 5527 5525 5522 5520 5517 5514 5511 5508 5505 5502 5499 5495 5492 5488 5484 5480 5476 5472 5468 5463 5459 5454 5450 5445 5440 5435 5430 5425 5420 5415 5411 5406 5402 5397 5393 5389 5386
5531 5530 5528 5526 5524 5522 5520 5517 5514 5512 5509 5506 5503 5500 5497 5494 5490 5487 5483 5479 5475 5471 5467 5463 5459 5455 5450 5446 5441 5436 5432 5427 5422 5417 5412 5407 5402 5397 5392 5388 5382 5378 5375 5371
5522 5521 5519 5517 5514 5512 5509 5507 5504 5501 5498 5495 5491 5488 5485 5482 5478 5475 5471 5467 5463 5459 5455 5450 5446 5442 5437 5433 5428 5423 5418 5414 5409 5404 5399 5394 5390 5385 5379 5374 5369 5364 5360 5357
5513 5511 5509 5507 5505 5502 5500 5497 5494 5490 5487 5484 5480 5477 5473 5470 5466 5462 5459 5455 5451 5446 5442 5438 5433 5429 5425 5420 5415 5410 5406 5401 5396 5391 5386 5381 5376 5372 5368 5363 5357 5352 5348 5344
5504 5502 5500 5498 5495 5493 5490 5487 5483 5480 5477 5473 5470 5466 5462 5458 5454 5450 5447 5443 5438 5434 5430 5425 5421 5417 5412 5408 5403 5398 5393 5388 5383 5378 5373 5368 5363 5359 5354 5350 5346 5341 5336 5331
5496 5493 5491 5488 5485 5483 5480 5477 5473 5470 5466 5463 5459 5455 5451 5447 5443 5439 5435 5430 5426 5422 5418 5413 5409 5405 5401 5396 5391 5386 5381 5376 5371 5366 5360 5355 5351 5346 5342 5337 5333 5329 5324 5320
5487 5484 5481 5479 5476 5473 5470 5467 5464 5460 5456 5453 5449 5444 5440 5436 5431 5427 5423 5419 5415 5411 5407 5403 5398 5394 5390 5385 5380 5375 5370 5364 5359 5354 5349 5343 5339 5334 5330 5325 5320 5316 5312 5308
5477 5475 5472 5470 5467 5463 5460 5457 5454 5450 5446 5442 5438 5434 5429 5425 5421 5417 5413 5408 5404 5400 5396 5392 5388 5384 5379 5374 5370 5364 5359 5354 5349 5343 5338 5332 5327 5322 5318 5313 5309 5305 5301 5297
5468 5466 5463 5460 5457 5454 5450 5447 5443 5439 5436 5431 5427 5423 5419 5415 5411 5407 5402 5398 5394 5390 5386 5382 5378 5373 5369 5364 5359 5354 5349 5344 5339 5333 5327 5322 5317 5312 5307 5302 5298 5294 5291 5287
5459 5456 5453 5450 5447 5444 5440 5437 5433 5429 5425 5421 5416 5412 5408 5404 5400 5396 5392 5389 5385 5381 5377 5372 5368 5363 5359 5354 5349 5344 5339 5334 5329 5323 5318 5312 5307 5302 5297 5293 5288 5284 5281 5278
5450 5447 5444 5441 5438 5434 5430 5426 5422 5418 5414 5410 5406 5402 5398 5395 5391 5387 5383 5379 5375 5371 5367 5362 5358 5353 5349 5344 5339 5335 5330 5325 5320 5314 5309 5303 5298 5293 5288 5284 5280 5276 5272 5269
5441 5438 5435 5431 5428 5424 5420 5416 5412 5408 5404 5400 5396 5393 5389 5385 5381 5377 5374 5370 5366 5361 5357 5353 5348 5344 5339 5335 5330 5325 5320 5316 5311 5306 5301 5296 5290 5285 5281 5276 5272 5269 5265 5262
5432 5429 5426 5422 5418 5414 5410 5406 5402 5398 5394 5391 5387 5383 5379 5376 5372 5368 5364 5360 5356 5352 5347 5343 5338 5334 5329 5325 5320 5316 5311 5307 5302 5298 5293 5288 5283 5279 5274 5270 5266 5262 5259 5256
5423 5419 5416 5413 5409 5405 5401 5397 5393 5389 5385 5381 5378 5374 5370 5367 5363 5359 5355 5351 5346 5342 5338 5333 5329 5324 5320 5315 5311 5307 5303 5298 5294 5290 5285 5281 5277 5272 5268 5264 5260 5257 5253 5250
5414 5410 5407 5403 5400 5396 5392 5388 5384 5380 5376 5373 5369 5365 5362 5358 5354 5349 5345 5341 5337 5332 5328 5323 5319 5315 5310 5306 5302 5298 5294 5290 5286 5282 5278 5274 5270 5266 5262 5258 5254 5251 5248 5245
5405 5401 5398 5394 5391 5387 5383 5379 5376 5372 5368 5364 5360 5356 5352 5348 5345 5340 5336 5331 5327 5323 5319 5314 5310 5306 5302 5298 5294 5290 5287 5283 5279 5275 5271 5267 5263 5260 5256 5252 5249 5245 5242 5240
5396 5393 5389 5386 5382 5378 5375 5371 5367 5363 5359 5355 5351 5347 5343 5339 5335 5331 5327 5322 5318 5314 5310 5306 5301 5297 5294 5290 5286 5283 5279 5276 5272 5268 5264 5261 5257 5253 5250 5246 5243 5240 5237 5234
5387 5384 5381 5377 5373 5370 5366 5362 5359 5355 5351 5347 5343 5338 5334 5330 5326 5322 5318 5314 5309 5305 5301 5297 5294 5290 5286 5283 5279 5276 5272 5268 5265 5261 5258 5254 5251 5247 5244 5241 5238 5235 5232 5229